Sulphur Springs, TX

7:54 PM CDT on June 27, 2017 (GMT -0500)
Sulphur Springs Municipal

Weather History for KSLR - March, 2014

Change the Weather History Date:

Friday, March 28, 2014

  Actual Average (KGVT) Record (KGVT)
Temperature  
Mean Temperature 67 °F -  
Max Temperature 80 °F 67 °F 80 °F (2014)
Min Temperature 53 °F 52 °F 33 °F (2009)
Cooling Degree Days 2    
Growing Degree Days 17 (Base 50)    
Moisture  
Dew Point 60 °F    
Average Humidity 79    
Maximum Humidity 97    
Minimum Humidity 50    
Precipitation  
Precipitation 0.03 in - - ()
Sea Level Pressure  
Sea Level Pressure 29.85 in    
Wind  
Wind Speed 8 mph (SSW)    
Max Wind Speed 23 mph    
Max Gust Speed 28 mph    
Visibility 8 miles    
Events Rain , Thunderstorm    
Averages and records for this station are not official NWS values.
T = Trace of Precipitation, MM = Missing Value Source: NWS Daily Summary

Daily Weather History Graph

Daily Weather History Graph

Search for Another Location

Airport or City:

Trip Planner

Search our weather history database for the weather conditions in past years. The results will help you decide how hot, cold, wet, or windy it might be!

Date:

Astronomy

Mar. 28, 2014 Rise Set
Actual Time 7:15 AM CDT 7:39 PM CDT
Civil Twilight 6:50 AM CDT 8:04 PM CDT
Nautical Twilight 6:21 AM CDT 8:33 PM CDT
Astronomical Twilight 5:52 AM CDT 9:03 PM CDT
Moon 5:40 AM CDT 5:42 PM CDT
Length of Visible Light 13h 14m
Length of Day
12h 24m
Waning Crescent, 6% of the Moon is Illuminated
Mar 28
Waning Crescent
Mar 30
New
Apr 7
First Quarter
Apr 15
Full
Apr 22
Last Quarter

Hourly Weather History & Observations

Time (CDT) Temp. Heat Index Dew Point Humidity Pressure Visibility Wind Dir Wind Speed Gust Speed Precip Events Conditions
12:15 AM 66.7 °F - 65.3 °F 95% 29.80 in 7.0 mi South 8.1 mph - N/A   Scattered Clouds
12:35 AM 67.1 °F - 65.3 °F 94% 29.80 in 4.0 mi South 6.9 mph - N/A   Mostly Cloudy
12:55 AM 66.7 °F - 65.3 °F 95% 29.79 in 5.0 mi South 6.9 mph - N/A   Mostly Cloudy
1:15 AM 66.7 °F - 65.1 °F 95% 29.79 in 5.0 mi South 6.9 mph - N/A   Mostly Cloudy
1:35 AM 66.7 °F - 65.3 °F 95% 29.79 in 7.0 mi South 8.1 mph - N/A   Scattered Clouds
1:55 AM 66.4 °F - 64.8 °F 95% 29.79 in 7.0 mi South 6.9 mph - N/A   Clear
2:15 AM 66.2 °F - 64.8 °F 95% 29.78 in 5.0 mi South 6.9 mph - N/A   Clear
2:35 AM 66.2 °F - 64.8 °F 95% 29.78 in 5.0 mi South 4.6 mph - N/A   Scattered Clouds
2:55 AM 65.7 °F - 64.4 °F 96% 29.78 in 5.0 mi South 3.5 mph - N/A   Scattered Clouds
3:15 AM 65.1 °F - 63.9 °F 96% 29.78 in 5.0 mi SSE 3.5 mph - N/A   Scattered Clouds
3:35 AM 65.3 °F - 64.4 °F 97% 29.79 in 4.0 mi South 3.5 mph - N/A   Mostly Cloudy
3:55 AM 66.2 °F - 65.3 °F 97% 29.78 in 5.0 mi South 3.5 mph - N/A   Overcast
4:15 AM 65.5 °F - 64.6 °F 97% 29.78 in 4.0 mi South 4.6 mph - N/A   Overcast
4:35 AM 66.4 °F - 65.5 °F 97% 29.78 in 5.0 mi South 4.6 mph - N/A   Mostly Cloudy
4:55 AM 66.7 °F - 65.5 °F 96% 29.78 in 5.0 mi South 5.8 mph - N/A   Mostly Cloudy
5:15 AM 67.1 °F - 65.5 °F 95% 29.78 in 5.0 mi South 6.9 mph - N/A   Mostly Cloudy
5:35 AM 67.3 °F - 65.5 °F 94% 29.79 in 7.0 mi South 9.2 mph - N/A   Scattered Clouds
5:55 AM 67.6 °F - 65.3 °F 92% 29.80 in 7.0 mi South 10.4 mph - N/A   Scattered Clouds
6:15 AM 67.5 °F - 64.8 °F 91% 29.80 in 7.0 mi South 9.2 mph - N/A   Mostly Cloudy
6:35 AM 67.1 °F - 64.6 °F 92% 29.81 in 7.0 mi South 8.1 mph - N/A   Scattered Clouds
6:55 AM 67.1 °F - 64.4 °F 91% 29.81 in 7.0 mi South 6.9 mph - N/A   Scattered Clouds
7:15 AM 66.2 °F - 64.0 °F 93% 29.83 in 5.0 mi SSE 3.5 mph - N/A   Clear
7:35 AM 65.5 °F - 63.9 °F 94% 29.83 in 4.0 mi SSE 3.5 mph - N/A   Scattered Clouds
7:55 AM 66.2 °F - 64.4 °F 94% 29.84 in 4.0 mi ESE 4.6 mph - N/A   Mostly Cloudy
8:15 AM 66.2 °F - 64.4 °F 94% 29.84 in 4.0 mi East 6.9 mph - N/A   Mostly Cloudy
8:35 AM 66.6 °F - 64.6 °F 93% 29.84 in 4.0 mi SE 5.8 mph - N/A   Mostly Cloudy
8:55 AM 67.3 °F - 65.3 °F 93% 29.85 in 4.0 mi SE 5.8 mph - N/A   Mostly Cloudy
9:15 AM 68.2 °F - 65.7 °F 92% 29.85 in 5.0 mi ESE 4.6 mph - N/A   Mostly Cloudy
9:35 AM 69.4 °F - 65.8 °F 88% 29.85 in 5.0 mi SE 4.6 mph - N/A   Mostly Cloudy
9:55 AM 70.2 °F - 64.8 °F 83% 29.86 in 7.0 mi South 4.6 mph - N/A   Mostly Cloudy
10:15 AM 70.3 °F - 64.4 °F 81% 29.89 in 7.0 mi SSW 12.7 mph - N/A   Mostly Cloudy
10:35 AM 70.7 °F - 64.4 °F 80% 29.88 in 7.0 mi South 10.4 mph 17.3 mph N/A   Mostly Cloudy
10:55 AM 70.9 °F - 63.5 °F 77% 29.88 in 7.0 mi South 6.9 mph - N/A   Scattered Clouds
11:15 AM 71.2 °F - 63.5 °F 76% 29.86 in 7.0 mi SE 5.8 mph - N/A   Clear
11:35 AM 73.6 °F - 63.9 °F 72% 29.87 in 7.0 mi South 6.9 mph - N/A   Clear
11:55 AM 73.8 °F - 63.7 °F 71% 29.87 in 10.0 mi South 8.1 mph - N/A   Clear
12:15 PM 73.8 °F - 63.5 °F 70% 29.87 in 7.0 mi SSW 6.9 mph - N/A   Clear
12:35 PM 75.7 °F - 63.1 °F 65% 29.86 in 7.0 mi South 9.2 mph - N/A   Clear
12:55 PM 76.8 °F - 63.3 °F 63% 29.87 in 10.0 mi WSW 10.4 mph - N/A   Scattered Clouds
1:15 PM 76.8 °F - 63.5 °F 63% 29.85 in 10.0 mi SSW 6.9 mph - N/A   Scattered Clouds
1:35 PM 78.8 °F - 62.4 °F 57% 29.84 in 10.0 mi SSW 8.1 mph - N/A   Scattered Clouds
1:55 PM 79.7 °F - 61.9 °F 54% 29.83 in 10.0 mi SW 9.2 mph - N/A   Scattered Clouds
2:15 PM 80.6 °F 81.5 °F 61.2 °F 51% 29.82 in 10.0 mi SSW 10.4 mph - N/A   Scattered Clouds
2:35 PM 80.1 °F 80.9 °F 60.1 °F 50% 29.81 in 10.0 mi South 8.1 mph - N/A   Scattered Clouds
2:55 PM 79.2 °F - 59.4 °F 51% 29.82 in 10.0 mi South 3.5 mph - N/A   Clear
3:15 PM 79.2 °F - 59.4 °F 51% 29.81 in 10.0 mi SW 3.5 mph - N/A   Scattered Clouds
3:35 PM 79.7 °F - 59.5 °F 50% 29.80 in 10.0 mi SW 3.5 mph - N/A   Scattered Clouds
3:55 PM 78.6 °F - 58.5 °F 50% 29.81 in 10.0 mi South 5.8 mph - N/A Thunderstorm Thunderstorm
4:15 PM 78.3 °F - 60.1 °F 53% 29.81 in 10.0 mi WSW 3.5 mph - N/A   Clear
4:35 PM 77.7 °F - 60.1 °F 54% 29.80 in 10.0 mi West 5.8 mph - N/A   Clear
4:55 PM 70.2 °F - 55.9 °F 61% 29.81 in 10.0 mi NW 20.7 mph 27.6 mph N/A Thunderstorm Mostly Cloudy
5:15 PM 63.7 °F - 54.3 °F 72% 29.84 in 7.0 mi NW 23.0 mph 26.5 mph N/A Rain , Thunderstorm Light Thunderstorms and Rain
5:35 PM 62.4 °F - 55.0 °F 77% 29.87 in 10.0 mi NW 10.4 mph - N/A Thunderstorm Mostly Cloudy
5:55 PM 61.7 °F - 55.4 °F 80% 29.87 in 10.0 mi WNW 5.8 mph - 0.01 in Rain , Thunderstorm Thunderstorms and Rain
6:15 PM 61.3 °F - 57.7 °F 88% 29.81 in 10.0 mi SSE 12.7 mph - 0.01 in Rain , Thunderstorm Light Thunderstorms and Rain
6:35 PM 63.1 °F - 56.3 °F 78% 29.79 in 10.0 mi NW 6.9 mph 16.1 mph 0.02 in   Scattered Clouds
6:55 PM 63.7 °F - 55.4 °F 74% 29.80 in 10.0 mi NW 15.0 mph - 0.02 in   Clear
7:15 PM 61.5 °F - 57.2 °F 86% 29.81 in 10.0 mi NNW 19.6 mph 25.3 mph N/A   Scattered Clouds
7:35 PM 58.6 °F - 53.6 °F 83% 29.86 in 10.0 mi NNW 15.0 mph - N/A   Scattered Clouds
7:55 PM 57.7 °F - 51.1 °F 78% 29.88 in 10.0 mi North 15.0 mph - N/A   Clear
8:15 PM 57.6 °F - 50.4 °F 77% 29.90 in 10.0 mi North 13.8 mph 18.4 mph N/A   Clear
8:35 PM 57.4 °F - 49.5 °F 75% 29.93 in 10.0 mi North 10.4 mph - N/A   Clear
8:55 PM 57.0 °F - 48.7 °F 74% 29.93 in 10.0 mi NNW 8.1 mph - N/A   Clear
9:15 PM 56.8 °F - 48.6 °F 74% 29.94 in 10.0 mi North 5.8 mph - N/A   Mostly Cloudy
9:35 PM 57.2 °F - 48.4 °F 72% 29.95 in 10.0 mi NW 9.2 mph - N/A   Overcast
9:55 PM 56.5 °F - 48.0 °F 73% 29.96 in 10.0 mi NW 11.5 mph - N/A   Scattered Clouds
10:15 PM 55.9 °F - 47.5 °F 73% 29.98 in 10.0 mi NNW 12.7 mph - N/A   Clear
10:35 PM 55.6 °F - 47.5 °F 74% 30.00 in 10.0 mi NNW 10.4 mph - N/A   Clear
10:55 PM 55.4 °F - 47.3 °F 74% 30.02 in 10.0 mi NW 11.5 mph - N/A   Clear
11:15 PM 54.9 °F - 46.4 °F 73% 30.04 in 10.0 mi NNW 12.7 mph - N/A   Clear
11:35 PM 54.0 °F - 46.4 °F 76% 30.04 in 10.0 mi NNW 11.5 mph - N/A   Clear
11:55 PM 53.1 °F - 46.2 °F 78% 30.05 in 10.0 mi NNW 13.8 mph - N/A   Clear